When you browse on this site, cookies collect data to enhance your experience and personalize the content and advertising you see.
Visit our Privacy Policy to learn more. By continuing to use the site, you agree to this use of cookies and data.
  • In Hungary
  • List of Countries
  • For 7 days
  • Water Temperature
  • Satellite Maps
  • Weather Map
  • News
  • Weather Widgets
  • user-avatar
    Login

    Hourly Weather Hatvan

    Today, 18 January, Friday

    Time Temperature Precipitation Wind Pressure Humidity
    00:00 +4°C° 0 mm 4 mps 747 mmHg 88%
    01:00 +4°C° 0 mm 4 mps 747 mmHg 89%
    02:00 +4°C° 0.2 mm 3 mps 747 mmHg 90%
    03:00 +3°C° 0.2 mm 3 mps 747 mmHg 91%
    04:00 +3°C° 0.2 mm 3 mps 747 mmHg 91%
    05:00 +3°C° 0.3 mm 3 mps 747 mmHg 90%
    06:00 +3°C° 0.3 mm 3 mps 747 mmHg 89%
    07:00 +3°C° 0.3 mm 3 mps 748 mmHg 88%
    08:00 +3°C° 0 mm 3 mps 748 mmHg 84%
    09:00 +3°C° 0 mm 4 mps 749 mmHg 79%
    10:00 +3°C° 0 mm 4 mps 749 mmHg 75%
    11:00 +2°C° 0 mm 5 mps 750 mmHg 71%
    12:00 +2°C° 0 mm 5 mps 750 mmHg 67%
    13:00 +2°C° 0 mm 6 mps 750 mmHg 64%
    14:00 +2°C° 0 mm 5 mps 751 mmHg 65%
    15:00 +1°C° 0 mm 5 mps 751 mmHg 67%
    16:00 +1°C° 0 mm 5 mps 751 mmHg 69%
    17:00 0°C° 0 mm 4 mps 752 mmHg 70%
    18:00 0°C° 0 mm 4 mps 752 mmHg 72%
    19:00 -1°C° 0 mm 4 mps 753 mmHg 74%
    20:00 0°C° 0 mm 3 mps 753 mmHg 75%
    21:00 -1°C° 0 mm 3 mps 754 mmHg 75%
    22:00 -1°C° 0 mm 2 mps 754 mmHg 76%
    23:00 -1°C° 0 mm 2 mps 755 mmHg 77%

    Tomorrow, 19 January, Saturday

    Time Temperature Precipitation Wind Pressure Humidity
    00:00 -1°C° 0 mm 2 mps 755 mmHg 78%
    01:00 +1°C° 0 mm 1 mps 755 mmHg 79%
    02:00 +1°C° 0 mm 1 mps 755 mmHg 80%
    03:00 +1°C° 0 mm 1 mps 755 mmHg 81%
    04:00 +1°C° 0 mm 1 mps 755 mmHg 82%
    05:00 +1°C° 0 mm 1 mps 756 mmHg 83%
    06:00 +1°C° 0 mm 1 mps 756 mmHg 84%
    07:00 0°C° 0 mm 1 mps 756 mmHg 85%
    08:00 -1°C° 0 mm 2 mps 756 mmHg 79%
    09:00 -1°C° 0 mm 2 mps 756 mmHg 72%
    10:00 0°C° 0 mm 3 mps 756 mmHg 65%
    11:00 0°C° 0 mm 3 mps 756 mmHg 62%
    12:00 +1°C° 0 mm 3 mps 755 mmHg 58%
    13:00 +1°C° 0 mm 3 mps 755 mmHg 54%
    14:00 +1°C° 0 mm 3 mps 755 mmHg 57%
    15:00 0°C° 0 mm 3 mps 754 mmHg 61%
    16:00 +1°C° 0 mm 2 mps 754 mmHg 64%
    17:00 -1°C° 0 mm 3 mps 754 mmHg 66%
    18:00 -1°C° 0 mm 3 mps 754 mmHg 68%
    19:00 -1°C° 0 mm 3 mps 754 mmHg 70%
    20:00 -1°C° 0 mm 3 mps 754 mmHg 68%
    21:00 -1°C° 0 mm 3 mps 754 mmHg 67%
    22:00 -1°C° 0 mm 3 mps 753 mmHg 65%
    23:00 -1°C° 0.1 mm 3 mps 753 mmHg 68%

    Day after tomorrow, 20 January, Sunday

    Time Temperature Precipitation Wind Pressure Humidity
    00:00 -1°C° 0.1 mm 3 mps 753 mmHg 71%
    01:00 -2°C° 0.1 mm 3 mps 752 mmHg 74%
    02:00 -2°C° 0.3 mm 3 mps 752 mmHg 78%
    03:00 -2°C° 0.3 mm 3 mps 751 mmHg 81%
    04:00 -2°C° 0.3 mm 3 mps 751 mmHg 85%
    05:00 -2°C° 0.3 mm 3 mps 751 mmHg 86%
    06:00 -2°C° 0.3 mm 2 mps 751 mmHg 88%
    07:00 -2°C° 0.3 mm 2 mps 751 mmHg 89%
    08:00 -2°C° 0.1 mm 2 mps 751 mmHg 88%
    09:00 -2°C° 0.1 mm 2 mps 751 mmHg 88%
    10:00 +1°C° 0.1 mm 1 mps 751 mmHg 87%
    11:00 +1°C° 0.1 mm 1 mps 751 mmHg 86%
    12:00 +1°C° 0.1 mm 1 mps 751 mmHg 85%
    13:00 +2°C° 0.1 mm 1 mps 751 mmHg 83%
    14:00 +2°C° 0 mm 1 mps 751 mmHg 84%
    15:00 +2°C° 0 mm 1 mps 751 mmHg 85%
    16:00 +2°C° 0 mm 1 mps 751 mmHg 86%
    17:00 +1°C° 0 mm 1 mps 751 mmHg 88%
    18:00 +1°C° 0 mm 1 mps 752 mmHg 89%
    19:00 0°C° 0 mm 1 mps 752 mmHg 90%
    20:00 0°C° 0 mm 1 mps 752 mmHg 90%
    21:00 0°C° 0 mm 1 mps 753 mmHg 90%
    22:00 -1°C° 0 mm 1 mps 753 mmHg 89%
    23:00 -1°C° 0 mm 1 mps 754 mmHg 89%

    21 January, Monday

    Time Temperature Precipitation Wind Pressure Humidity
    00:00 -1°C° 0 mm 1 mps 754 mmHg 88%
    01:00 -1°C° 0 mm 1 mps 754 mmHg 88%
    02:00 0°C° 0 mm 1 mps 754 mmHg 88%
    03:00 0°C° 0 mm 1 mps 755 mmHg 89%
    04:00 0°C° 0 mm 1 mps 755 mmHg 89%
    05:00 0°C° 0 mm 1 mps 755 mmHg 90%
    06:00 0°C° 0 mm 1 mps 756 mmHg 91%
    07:00 0°C° 0 mm 1 mps 756 mmHg 92%
    08:00 0°C° 0 mm 1 mps 757 mmHg 88%
    09:00 +1°C° 0 mm 1 mps 757 mmHg 84%
    10:00 +2°C° 0 mm 1 mps 757 mmHg 80%
    11:00 +2°C° 0 mm 1 mps 757 mmHg 73%
    12:00 +3°C° 0 mm 1 mps 757 mmHg 66%
    13:00 +3°C° 0 mm 1 mps 757 mmHg 58%
    14:00 +2°C° 0 mm 1 mps 757 mmHg 60%
    15:00 +2°C° 0 mm 1 mps 757 mmHg 63%
    16:00 +1°C° 0 mm 1 mps 757 mmHg 65%
    17:00 +1°C° 0 mm 1 mps 757 mmHg 66%
    18:00 0°C° 0 mm 1 mps 757 mmHg 68%
    19:00 0°C° 0 mm 1 mps 757 mmHg 69%
    20:00 -1°C° 0 mm 1 mps 757 mmHg 71%
    21:00 -1°C° 0 mm 1 mps 757 mmHg 73%
    22:00 -1°C° 0 mm 1 mps 757 mmHg 75%
    23:00 -1°C° 0 mm 1 mps 757 mmHg 77%

    22 January, Tuesday

    Time Temperature Precipitation Wind Pressure Humidity
    00:00 -1°C° 0 mm 1 mps 757 mmHg 78%
    01:00 -1°C° 0 mm 1 mps 756 mmHg 79%
    02:00 -1°C° 0 mm 1 mps 756 mmHg 79%
    03:00 -4°C° 0 mm 2 mps 755 mmHg 79%
    04:00 -4°C° 0 mm 2 mps 754 mmHg 79%
    05:00 -4°C° 0 mm 2 mps 754 mmHg 81%
    06:00 -5°C° 0 mm 3 mps 753 mmHg 82%
    07:00 -5°C° 0 mm 3 mps 753 mmHg 83%
    08:00 -5°C° 0 mm 3 mps 753 mmHg 83%
    09:00 -4°C° 0 mm 3 mps 752 mmHg 82%
    10:00 -4°C° 0 mm 4 mps 752 mmHg 82%
    11:00 -3°C° 0.1 mm 4 mps 751 mmHg 81%
    12:00 -3°C° 0.1 mm 4 mps 750 mmHg 80%
    13:00 -2°C° 0.1 mm 4 mps 749 mmHg 80%
    14:00 -3°C° 0.3 mm 4 mps 748 mmHg 82%
    15:00 -4°C° 0.3 mm 5 mps 747 mmHg 84%
    16:00 -4°C° 0.3 mm 5 mps 746 mmHg 86%
    17:00 -4°C° 0.6 mm 5 mps 745 mmHg 88%
    18:00 -4°C° 0.6 mm 5 mps 744 mmHg 89%
    19:00 -4°C° 0.6 mm 5 mps 743 mmHg 91%
    20:00 -4°C° 0.2 mm 5 mps 743 mmHg 90%
    21:00 -4°C° 0.2 mm 5 mps 742 mmHg 90%
    22:00 -4°C° 0.2 mm 5 mps 741 mmHg 89%
    23:00 -2°C° 0.6 mm 5 mps 740 mmHg 91%

    23 January, Wednesday

    Time Temperature Precipitation Wind Pressure Humidity
    00:00 -2°C° 0.6 mm 5 mps 740 mmHg 93%
    01:00 -2°C° 0.6 mm 5 mps 739 mmHg 95%
    02:00 -2°C° 0.4 mm 5 mps 738 mmHg 94%
    03:00 -2°C° 0.4 mm 5 mps 738 mmHg 94%
    04:00 -2°C° 0.4 mm 6 mps 737 mmHg 93%
    05:00 -1°C° 0.2 mm 5 mps 737 mmHg 93%
    06:00 -1°C° 0.2 mm 5 mps 737 mmHg 92%
    07:00 -1°C° 0.2 mm 5 mps 736 mmHg 92%
    08:00 -1°C° 0.1 mm 5 mps 736 mmHg 93%
    09:00 -1°C° 0.1 mm 5 mps 737 mmHg 94%
    10:00 0°C° 0.1 mm 4 mps 737 mmHg 95%
    11:00 0°C° 0.1 mm 4 mps 736 mmHg 96%
    12:00 0°C° 0.1 mm 4 mps 736 mmHg 97%
    13:00 +1°C° 0.1 mm 3 mps 736 mmHg 98%
    14:00 +1°C° 0.1 mm 3 mps 736 mmHg 98%
    15:00 +1°C° 0.1 mm 3 mps 736 mmHg 98%
    16:00 +2°C° 0.1 mm 2 mps 736 mmHg 98%
    17:00 +2°C° 0 mm 2 mps 736 mmHg 97%
    18:00 0°C° 0 mm 3 mps 736 mmHg 96%
    19:00 0°C° 0 mm 3 mps 736 mmHg 96%
    20:00 0°C° 0 mm 3 mps 736 mmHg 95%
    21:00 0°C° 0 mm 3 mps 736 mmHg 95%
    22:00 -1°C° 0 mm 3 mps 736 mmHg 94%
    23:00 -1°C° 0 mm 3 mps 736 mmHg 94%
    Show more